This is the latest recevied weather packets stored in our database for station/object N3WPH. If no packets are shown the sender has not sent any weather packets the latest 10 day(s).
| Time | Temp. | Humidity | Pressure | Rain* | Wind** | Luminosity | Snow |
|---|---|---|---|---|---|---|---|
| 1777114990 | 8.89° C | 61% | 1013.1 hPa | 0 mm | - | 7 W/m² | - |
| 1777114688 | 8.89° C | 57% | 1013.3 hPa | 0 mm | - | 3 W/m² | - |
| 1777114387 | 8.89° C | 57% | 1013.2 hPa | 0 mm | - | 3 W/m² | - |
| 1777114084 | 9.44° C | 55% | 1013.4 hPa | 0 mm | - | 5 W/m² | - |
| 1777113780 | 9.44° C | 54% | 1013.2 hPa | 0 mm | - | 7 W/m² | - |
| 1777113478 | 9.44° C | 58% | 1013.1 hPa | 0 mm | - | 7 W/m² | - |
| 1777113173 | 9.44° C | 53% | 1013 hPa | 0 mm | - | 7 W/m² | - |
| 1777112868 | 9.44° C | 53% | 1012.9 hPa | 0 mm | - | 6 W/m² | - |
| 1777112565 | 9.44° C | 52% | 1012.8 hPa | 0 mm | - | 5 W/m² | - |
| 1777112262 | 9.44° C | 51% | 1013 hPa | 0 mm | - | 2 W/m² | - |
| 1777111959 | 9.44° C | 53% | 1012.8 hPa | 0 mm | - | 1 W/m² | - |
| 1777111655 | 10° C | 53% | 1012.5 hPa | 0 mm | - | 1 W/m² | - |
| 1777111351 | 10° C | 55% | 1012.5 hPa | 0 mm | - | 0 W/m² | - |
| 1777111047 | 9.44° C | 56% | 1012.3 hPa | 0 mm | - | 0 W/m² | - |
| 1777110744 | 10° C | 54% | 1011.8 hPa | 0 mm | - | 0 W/m² | - |
| 1777110440 | 10° C | 52% | 1011.6 hPa | 0 mm | - | 0 W/m² | - |
| 1777110139 | 10° C | 51% | 1011.5 hPa | 0 mm | - | 0 W/m² | - |
| 1777109835 | 10° C | 53% | 1011.3 hPa | 0 mm | - | 0 W/m² | - |
| 1777109532 | 10° C | 53% | 1011.5 hPa | 0 mm | - | 0 W/m² | - |
| 1777109228 | 10° C | 54% | 1011.7 hPa | 0 mm | - | 0 W/m² | - |
| 1777108923 | 10° C | 53% | 1011.7 hPa | 0 mm | - | 0 W/m² | - |
| 1777108619 | 10° C | 52% | 1011.6 hPa | 0 mm | - | 0 W/m² | - |
| 1777108315 | 10° C | 54% | 1011.6 hPa | 0 mm | - | 0 W/m² | - |
| 1777108011 | 10° C | 55% | 1011.3 hPa | 0 mm | - | 0 W/m² | - |
| 1777107707 | 10° C | 54% | 1011.3 hPa | 0 mm | - | 0 W/m² | - |
* Rain latest hour (hover to see other rain measurements)
** Current wind speed in m/s (hover to see current wind gust speed)